Wind_Gust
17 17 17 18 18 17 17 17 17 18 18 18 19 20 20 20 21 20 20 21 21 20 20 20 20 21 21 22 24 25 21 18 21 15 9 29 10 18 17 11 5 5 12 7 4 4 5 2 3 2 7 7 7 6 8 5 5 6 12 11 9 10 10 11 13 16 6 6 11 15 7 10 13 11 6 13 18 19 15 16 15 19 18 23 24 25 26 25
18 17 16 17 17 17 18 17 17 18 19 19 19 19 20 20 20 21 21 21 21 21 20 19 20 21 22 22 23 23 20 13 19 18 32 18 15 18 20 20 12 8 11 6 5 6 3 1 4 4 9 8 1 8 6 11 9 11 9 10 20 12 15 9 8 10 7 11 11 12 9 6 9 2 6 12 6 14 23 17 22 27 27 25 25 26 27 24
17 18 17 17 17 17 17 17 17 18 19 19 20 20 20 21 21 21 21 21 21 20 20 19 20 21 22 23 23 22 16 19 10 16 30 16 30 26 25 21 18 14 8 5 5 9 9 6 7 7 4 6 4 9 5 11 12 11 13 13 18 8 7 6 7 11 8 8 15 12 9 6 12 6 3 9 9 12 27 26 25 28 30 28 26 27 25 24
17 18 17 17 17 17 17 17 18 18 19 19 20 20 21 21 22 21 20 21 21 20 20 19 19 20 22 22 22 16 12 10 13 15 5 13 15 27 27 24 20 17 6 7 7 9 6 6 7 9 6 4 6 3 12 12 15 9 12 18 12 9 9 9 7 12 13 8 9 7 6 12 12 9 6 14 16 5 12 30 38 35 32 30 30 29 25 23
17 17 18 18 18 18 17 18 18 18 19 19 20 21 21 21 21 21 21 21 20 20 20 20 19 19 21 21 23 10 12 7 14 6 8 15 13 14 21 26 21 14 13 5 5 2 5 5 6 3 6 13 3 3 9 7 9 10 14 7 9 3 4 10 10 11 9 8 5 9 8 10 8 6 9 14 14 17 26 16 31 37 38 35 32 29 25 24
17 17 18 18 17 17 18 18 18 18 19 20 20 21 21 21 21 21 21 21 20 20 20 19 19 19 20 21 17 4 5 14 4 5 16 19 20 20 16 21 20 16 12 8 9 5 6 2 6 8 8 6 7 14 8 7 6 14 8 6 8 9 11 5 6 9 7 11 6 9 5 7 7 7 5 6 6 7 10 18 19 31 33 31 28 31 25 23
21 20 18 17 17 17 18 18 18 19 19 19 20 20 20 21 21 21 21 21 20 20 20 19 18 19 19 16 14 3 9 28 6 8 19 23 24 23 18 13 20 18 14 11 8 12 6 5 7 5 8 5 5 13 10 3 3 9 18 4 9 8 12 10 10 10 7 4 12 12 6 9 11 8 6 8 7 13 22 20 21 22 22 28 30 22 23 24
22 21 21 19 18 17 18 18 18 18 19 19 20 21 21 21 21 21 21 21 20 20 19 19 17 17 17 13 14 8 6 28 16 7 19 23 24 21 15 13 15 15 15 16 14 9 7 9 13 8 7 16 8 13 4 6 3 7 14 7 10 7 9 11 12 11 11 14 15 8 8 11 5 6 5 8 10 20 25 24 24 23 22 23 22 23 20 19
22 22 21 22 21 19 18 18 18 18 19 19 20 20 21 20 21 21 22 21 20 19 19 17 18 15 14 7 6 13 25 19 6 12 18 20 20 18 12 9 7 17 13 9 9 10 11 11 8 11 12 8 5 5 3 7 12 12 13 7 7 7 8 10 7 10 14 14 9 8 9 6 13 17 16 8 11 20 29 25 27 24 25 27 21 18 18 16
23 23 23 23 23 21 20 18 18 18 19 19 20 20 21 21 21 20 21 21 20 19 18 16 15 14 12 13 7 9 18 4 7 14 17 19 20 16 12 10 8 6 12 7 6 9 12 14 13 7 6 5 5 9 4 8 12 6 8 12 13 14 8 5 8 11 7 8 5 7 10 10 10 11 6 8 15 21 27 28 22 26 24 22 18 15 13 16
23 23 24 22 21 22 22 20 18 19 19 19 20 20 22 21 20 20 20 20 20 19 18 17 14 12 11 7 10 22 10 5 7 16 18 17 18 13 11 12 5 6 6 5 11 11 10 7 5 7 6 17 7 6 6 10 4 4 8 5 7 11 9 8 6 11 3 11 10 11 10 10 5 6 16 19 19 21 28 26 25 21 22 23 18 14 12 14
23 23 23 22 22 23 22 23 21 19 19 19 20 20 21 21 20 20 20 20 20 18 17 15 15 11 11 15 20 35 7 9 17 18 21 15 15 13 10 9 5 5 5 7 8 12 10 7 4 5 14 5 11 2 7 5 4 5 3 6 10 7 13 5 11 9 8 12 6 10 9 8 4 9 16 20 21 22 25 25 22 21 19 18 16 13 12 12
22 23 23 23 23 23 23 22 22 20 19 20 20 20 20 20 20 21 20 20 17 18 18 16 13 10 10 21 35 34 30 34 23 22 25 8 14 13 14 9 7 6 7 8 9 8 7 8 4 6 7 5 5 14 5 3 4 6 2 5 7 8 10 12 5 2 9 10 12 11 10 12 12 11 18 21 25 21 21 24 20 21 19 18 14 15 12 5
22 23 24 23 23 23 22 23 23 21 20 20 21 21 21 20 21 21 21 20 21 19 17 15 10 10 15 31 28 11 12 18 17 24 26 9 5 14 4 9 8 7 7 10 15 7 6 7 9 11 5 3 10 5 11 9 4 8 7 3 7 3 12 8 8 6 10 7 11 8 11 13 5 14 19 19 25 31 27 25 22 19 18 17 17 14 12 9
23 23 22 22 22 22 23 22 22 22 20 21 22 21 21 22 22 22 22 19 18 17 17 13 9 8 12 30 17 23 30 21 19 29 23 8 6 12 14 6 4 6 8 14 11 6 9 10 8 10 13 7 8 7 12 5 7 4 10 13 8 7 12 12 5 10 14 5 6 12 9 12 8 18 20 21 23 23 28 24 22 19 18 17 17 14 12 9
23 23 23 22 22 21 21 22 22 22 20 22 23 23 25 24 23 23 23 20 20 18 11 8 7 9 11 32 17 10 7 8 15 20 13 15 11 13 10 4 8 11 5 7 13 8 9 10 13 14 9 3 5 9 3 8 7 8 10 7 6 5 9 9 2 8 12 8 2 12 14 8 6 13 21 20 27 23 25 23 24 22 19 19 16 15 11 8
24 24 23 23 21 21 21 21 21 21 20 21 22 22 23 25 25 26 24 20 14 9 10 11 5 13 13 16 10 7 13 13 9 5 6 14 16 15 4 4 7 7 5 5 8 7 5 13 7 8 7 13 10 11 8 9 10 11 6 13 7 8 6 7 11 3 3 5 7 3 9 9 8 17 17 18 23 21 22 25 23 20 19 17 15 14 12 12
24 23 24 23 21 21 21 20 21 21 20 20 19 19 27 26 28 24 15 11 7 10 12 11 4 8 33 17 20 9 5 10 6 9 9 8 17 7 5 9 5 2 6 6 4 10 11 14 10 13 6 13 12 14 25 29 25 13 6 8 6 3 4 7 8 5 5 3 11 4 5 9 7 19 20 26 23 23 23 28 24 19 18 16 15 14 15 14
24 24 23 23 22 21 20 20 20 19 19 19 19 21 28 25 12 5 6 6 13 5 7 21 19 19 9 5 10 10 9 11 13 7 9 11 7 9 6 5 4 7 7 9 10 13 10 8 5 7 23 20 25 22 21 6 11 10 9 10 7 8 6 7 11 7 5 3 6 9 13 9 10 15 17 20 21 24 24 24 22 20 15 16 17 16 15 14
24 24 23 23 22 21 20 19 18 18 18 14 13 22 15 14 10 7 5 9 15 14 6 11 26 13 22 17 6 5 13 5 7 6 4 7 17 10 7 9 5 6 11 16 8 15 14 16 23 30 24 11 5 11 10 9 9 10 6 6 7 7 7 7 6 7 2 4 7 12 8 10 16 20 19 22 18 16 17 21 19 19 20 17 20 18 16 14
24 23 23 23 22 22 21 19 17 15 15 8 8 17 13 7 9 12 8 16 21 20 23 14 26 26 25 15 8 17 19 11 2 7 7 4 7 18 13 13 10 9 10 10 16 7 14 15 26 13 7 10 10 9 10 8 7 8 7 4 6 5 8 7 5 5 7 7 5 4 6 9 18 20 22 17 19 20 23 23 24 23 22 26 27 21 17 15
23 23 22 22 21 21 21 18 16 16 9 6 7 17 16 15 11 7 7 20 12 24 24 25 16 22 25 27 18 6 7 12 21 14 11 9 10 27 10 17 12 20 6 8 7 13 23 32 11 6 9 12 10 12 12 14 10 6 8 5 6 9 7 9 6 6 3 3 13 6 9 11 11 16 17 21 25 26 28 30 30 29 26 25 22 18 19 19
23 23 22 22 21 21 20 18 15 12 8 7 8 8 17 12 9 10 9 20 30 20 21 23 21 25 35 27 14 8 10 15 20 13 7 9 7 16 17 20 17 13 13 11 24 12 18 17 11 11 11 13 6 10 12 10 8 11 5 8 13 6 7 11 6 4 3 11 5 7 7 8 8 5 16 21 29 26 25 28 25 30 32 29 24 23 23 20
22 22 21 21 21 20 19 18 13 6 6 7 11 18 12 9 10 11 12 15 19 15 23 26 29 23 30 26 21 22 17 16 14 16 9 10 15 9 19 17 14 16 23 17 13 17 13 5 13 15 12 13 10 7 12 13 14 5 9 8 8 7 6 9 8 6 5 6 4 6 9 9 4 11 11 11 8 16 18 17 21 29 31 29 26 22 21 19
21 20 20 20 20 20 19 15 8 9 3 5 15 17 15 17 15 9 7 15 14 25 9 13 17 20 22 9 10 22 14 14 16 10 7 11 12 18 12 17 20 23 14 10 7 8 10 7 10 18 13 11 12 11 17 15 10 9 7 11 11 6 5 3 4 6 14 10 4 6 9 14 8 10 24 21 18 17 17 22 21 16 22 19 19 18 19 20
20 20 20 20 20 17 17 12 8 4 4 14 14 8 8 12 11 11 9 11 18 11 7 9 23 17 21 11 17 15 10 18 15 24 11 10 8 15 19 21 23 22 11 13 15 19 13 5 11 17 15 13 14 15 9 14 13 11 20 14 12 8 7 4 2 5 4 9 6 4 14 19 8 10 13 19 20 21 18 20 22 25 30 24 23 24 21 21
20 19 19 19 18 16 9 15 5 3 10 12 9 12 14 14 11 14 11 11 13 15 13 3 11 19 21 18 25 18 11 22 15 13 16 15 9 11 19 10 14 9 15 17 16 28 17 13 9 9 17 19 18 22 16 18 15 20 6 17 10 8 8 5 6 6 11 6 12 3 11 14 11 14 8 19 25 21 20 19 25 26 24 24 20 18 17 19
19 19 18 18 17 13 10 12 7 7 12 16 14 14 16 11 11 8 9 9 21 10 7 8 17 12 7 19 23 29 10 7 20 16 16 11 7 11 17 13 16 14 14 18 29 8 17 16 14 13 12 20 27 15 11 14 21 13 7 15 13 12 9 8 7 8 7 2 19 10 2 11 15 13 3 13 24 25 27 25 25 27 24 23 24 19 16 16
19 18 18 17 17 17 12 11 9 14 6 9 14 17 17 13 8 11 9 10 13 11 14 14 11 8 9 14 16 18 11 5 7 10 13 7 13 8 21 10 13 14 8 16 16 7 12 17 17 14 15 24 12 13 16 17 14 5 11 9 9 8 5 9 9 8 5 7 17 14 8 17 15 10 16 15 20 31 30 28 25 28 25 22 22 21 22 21
18 17 16 15 13 9 7 5 14 6 10 11 14 17 13 9 8 9 11 14 8 8 4 7 11 11 14 20 13 13 13 8 5 14 14 17 11 5 10 10 13 16 13 7 10 12 5 9 18 23 24 15 11 8 17 16 8 7 15 12 7 6 5 5 6 8 5 13 25 10 8 13 17 15 22 27 29 25 23 22 25 23 22 21 22 25 23 21
17 16 15 13 11 9 6 9 8 6 5 8 14 16 7 7 14 14 8 21 13 8 5 3 6 16 18 16 13 12 11 7 5 17 19 12 11 9 11 13 7 13 8 9 16 15 13 6 17 19 13 13 10 11 9 18 11 15 14 12 11 6 8 5 6 4 15 24 14 8 14 12 20 10 12 15 7 22 29 25 26 24 26 29 26 23 21 20
16 16 15 11 10 7 13 8 6 3 5 6 8 11 8 15 8 15 20 7 12 12 6 8 7 11 12 6 12 22 21 7 6 16 24 26 17 22 21 26 29 27 23 22 23 11 22 19 7 5 16 17 15 12 5 12 10 13 12 12 18 14 14 17 11 18 26 28 9 7 11 7 18 16 14 21 13 21 24 32 36 34 32 28 25 23 21 21
16 15 16 15 11 10 16 9 10 8 10 8 8 7 10 12 18 14 15 11 10 14 11 12 6 4 9 7 9 14 7 7 6 8 14 14 16 15 8 14 12 23 25 9 9 16 18 10 7 9 7 20 18 25 14 16 17 17 22 20 21 19 19 21 16 15 12 15 7 2 6 16 9 9 7 10 9 23 25 25 31 38 37 32 29 24 22 21
16 13 11 7 10 11 7 7 7 6 8 10 5 5 8 12 18 6 12 7 11 15 13 10 20 10 13 23 10 14 13 6 9 15 15 18 17 22 15 13 14 11 12 13 27 22 15 23 33 16 23 16 25 23 20 12 18 18 9 20 17 19 28 22 19 26 18 17 7 5 14 19 10 9 9 11 13 12 18 29 25 19 22 23 24 22 21 21
13 9 6 8 8 9 9 11 11 9 5 7 5 13 19 23 4 7 7 10 11 15 14 21 10 2 7 10 7 12 11 17 7 11 16 18 23 24 23 23 9 11 9 24 15 19 23 28 12 16 6 14 19 10 15 12 11 10 13 14 14 30 14 13 16 14 12 10 8 10 19 5 7 6 9 9 15 24 25 31 31 24 20 23 23 23 22 22
8 8 3 10 5 4 10 14 7 6 5 5 11 15 18 13 13 7 6 10 10 16 23 21 5 8 4 10 5 10 11 8 11 11 10 14 10 21 12 16 24 16 17 25 16 19 13 28 4 10 10 9 15 14 16 18 28 17 19 29 26 12 11 11 4 3 5 7 19 10 12 8 7 5 8 11 17 17 18 16 24 23 23 22 22 20 20 23
8 7 7 4 5 6 8 9 10 8 7 6 10 13 10 10 4 5 10 12 13 17 13 14 10 9 6 6 8 8 11 5 6 14 14 9 15 14 20 10 9 12 10 18 8 10 22 12 6 10 17 16 8 20 11 19 14 19 29 18 8 8 9 15 14 6 8 19 22 6 9 8 9 15 10 14 17 12 17 18 21 22 25 26 21 20 19 23
10 7 12 9 9 8 8 9 11 8 9 7 16 12 9 8 3 10 8 13 15 12 9 8 6 6 4 5 5 7 6 15 5 13 10 10 20 9 14 21 9 17 12 5 16 12 11 8 15 10 15 16 5 9 10 11 14 21 16 12 29 18 22 14 13 11 11 17 17 10 6 10 11 10 10 16 20 17 15 19 24 20 20 22 23 23 22 24
8 7 10 4 4 13 11 14 10 11 8 13 13 12 7 8 5 9 9 10 15 13 8 8 9 7 5 5 4 5 9 22 8 8 14 15 13 11 20 13 11 10 14 10 13 10 8 11 10 8 14 11 12 14 23 22 9 4 13 24 11 14 13 14 24 11 19 9 8 10 11 20 17 14 16 19 22 22 21 20 23 21 21 24 27 23 19 18
10 11 6 4 10 6 18 13 11 8 7 12 8 13 5 10 9 9 9 12 11 11 7 9 11 10 7 6 3 6 5 9 10 10 8 8 18 5 14 14 14 15 13 11 10 6 9 6 7 12 7 13 22 24 24 22 20 13 18 18 16 17 7 15 9 13 14 20 15 14 16 19 14 11 17 17 20 27 32 28 24 20 19 25 26 31 26 17
5 6 8 6 12 13 16 12 9 10 9 7 5 5 5 11 13 12 13 14 13 7 10 11 11 5 4 10 8 4 6 4 10 11 13 6 18 12 11 16 15 17 13 9 13 8 9 9 15 7 15 19 16 11 9 17 19 18 20 18 14 15 14 22 20 10 11 16 17 16 24 14 12 7 15 16 15 16 16 25 23 19 19 19 24 25 26 28
8 9 7 6 6 9 14 15 12 7 9 6 7 6 9 10 10 11 13 10 11 15 7 9 12 10 7 9 7 5 4 6 5 6 8 11 8 8 9 11 16 14 26 21 18 9 16 9 10 9 17 19 6 8 13 20 19 17 22 16 12 11 16 17 20 13 9 7 8 7 10 13 9 6 6 15 14 15 16 17 21 20 19 17 19 19 18 24
8 10 3 3 4 9 7 7 6 10 9 7 8 13 11 12 9 11 13 10 11 6 8 8 10 6 8 11 4 4 1 8 6 10 7 7 7 17 7 14 14 19 18 21 9 13 8 15 9 9 7 7 9 7 4 17 18 7 17 10 15 17 16 19 17 14 14 6 7 6 9 13 6 6 6 15 14 15 15 16 20 20 19 20 19 19 20 19
9 10 9 4 4 7 7 10 10 4 8 8 7 12 6 11 12 13 10 5 8 8 7 10 12 13 13 5 4 5 4 9 4 2 5 5 11 7 10 10 13 24 23 17 25 12 24 12 12 5 9 8 5 5 7 3 13 19 18 16 16 13 7 5 11 4 17 15 14 17 15 9 5 6 13 16 18 18 19 16 20 23 19 21 21 18 16 18
13 8 7 6 4 7 11 5 3 5 7 5 6 9 8 7 10 16 13 11 10 15 9 13 17 12 11 6 6 6 5 7 8 4 2 3 7 2 7 10 11 12 11 11 12 15 17 8 15 11 12 18 24 27 22 17 22 15 9 14 10 15 11 10 13 10 18 6 7 17 13 8 6 13 17 18 18 19 18 19 17 19 21 21 17 18 18 17
7 10 7 6 8 6 8 4 6 4 6 4 5 11 8 10 7 10 11 18 19 21 24 22 20 15 14 8 4 5 5 3 7 7 6 5 5 6 6 6 10 13 13 12 15 19 19 9 10 14 13 14 17 15 10 9 9 16 7 17 14 10 16 11 13 13 22 9 11 11 12 15 16 21 21 20 21 22 22 23 25 22 20 22 20 20 19 17
6 6 7 8 8 7 10 6 8 7 5 4 8 6 5 8 8 12 11 14 12 18 17 21 18 12 6 6 5 8 7 6 5 3 4 2 5 6 10 7 5 9 15 19 14 16 11 13 8 10 11 12 10 8 6 12 15 9 10 12 10 15 13 15 17 22 11 20 12 10 12 27 20 19 22 21 21 20 19 21 23 23 23 22 20 17 15 19
9 5 3 8 9 13 13 16 13 11 12 7 8 6 8 8 7 7 8 19 22 17 13 7 9 14 15 9 8 10 8 6 4 4 6 2 3 8 8 5 7 13 10 16 16 14 17 18 7 8 6 5 8 8 7 7 10 14 13 13 11 11 13 16 13 8 15 17 19 14 19 21 23 27 30 32 34 32 28 24 21 22 22 20 20 20 19 19
5 7 7 7 7 5 13 4 6 13 14 11 9 7 11 9 14 13 9 9 9 5 10 5 3 5 5 4 7 7 5 6 5 3 3 7 3 5 6 8 5 10 8 15 19 12 18 11 9 8 8 6 11 11 7 11 7 11 10 10 11 18 17 15 8 11 17 7 11 25 23 17 18 22 18 15 15 22 21 20 21 22 23 21 21 21 21 20
11 10 8 6 7 10 7 5 5 5 9 10 9 8 7 5 10 10 6 8 8 7 8 7 3 6 4 5 4 7 6 5 3 4 3 2 8 5 4 5 10 9 8 16 19 5 13 11 11 11 9 5 8 11 10 8 13 12 8 10 10 5 3 4 10 7 10 13 6 19 16 9 5 13 16 16 18 20 23 24 24 22 22 23 22 21 21 20
11 7 7 8 11 6 6 6 9 9 8 6 12 11 7 10 12 5 9 8 11 8 5 3 3 5 3 4 4 4 10 5 6 9 8 3 4 3 6 6 5 7 8 9 11 11 13 6 4 10 11 5 6 10 9 11 14 14 8 14 15 11 11 8 17 10 13 15 19 15 12 11 10 18 18 20 21 24 25 24 23 22 22 24 23 21 20 20
12 9 10 10 8 6 6 5 9 9 14 10 12 7 7 5 4 10 17 8 5 9 8 5 3 5 7 5 6 9 8 6 8 9 8 9 6 10 5 4 4 4 4 7 4 19 16 14 11 8 13 9 4 5 5 7 10 8 4 6 8 4 4 4 5 4 9 30 24 20 20 19 25 27 28 24 24 24 25 24 22 20 20 22 23 22 20 18
Wind_Speed
14 13 13 14 14 14 13 14 14 14 14 15 15 15 16 16 16 16 16 16 17 17 15 15 16 16 16 18 19 20 17 9 13 6 5 15 5 11 13 7 3 1 3 2 1 3 3 1 2 1 4 4 2 3 3 1 1 2 2 4 4 5 5 4 5 7 2 1 3 6 4 3 5 4 0 4 9 4 5 7 3 9 8 5 5 14 14 13
14 14 13 12 13 14 14 14 14 14 15 15 15 15 15 16 16 16 16 17 16 16 15 15 16 17 17 18 19 19 13 8 12 12 18 8 7 14 15 16 10 5 8 2 4 2 2 0 1 3 5 2 0 2 3 1 1 3 1 3 10 5 5 5 3 6 1 3 4 4 4 1 4 1 2 4 3 1 9 7 7 10 9 10 12 14 15 14
13 14 14 14 14 13 13 14 14 14 15 15 16 16 16 16 17 16 16 16 16 16 16 15 16 16 17 18 19 17 10 12 6 9 11 7 19 17 17 14 10 10 5 2 3 6 5 3 5 4 0 2 1 3 2 2 4 4 6 6 8 4 3 4 3 5 4 3 7 7 5 4 7 1 1 3 3 1 10 11 9 11 11 13 14 14 13 14
13 14 14 14 14 13 13 14 14 14 15 15 16 16 17 17 17 16 15 16 16 14 16 15 14 16 17 18 17 11 7 6 4 4 2 7 7 9 13 15 14 12 4 2 5 3 1 4 5 5 1 1 1 0 4 3 3 2 3 6 4 4 2 5 5 7 8 3 3 2 4 7 5 0 1 7 6 3 5 11 19 15 17 17 15 16 15 15
13 13 13 13 14 14 14 14 14 14 15 15 15 16 16 17 16 16 16 16 16 15 14 16 14 13 16 16 18 6 7 3 3 3 3 8 9 10 10 12 15 10 8 3 3 0 2 2 3 1 2 3 0 1 2 3 3 4 6 2 3 1 2 6 6 7 4 1 0 1 5 5 3 1 2 9 6 6 9 10 7 19 19 20 18 17 14 15
14 14 14 13 13 13 14 14 14 15 15 15 15 15 16 16 16 17 16 17 15 16 15 15 14 12 15 16 9 2 1 2 0 1 11 11 13 14 13 6 15 11 9 5 4 3 4 1 3 3 1 2 5 7 2 3 2 3 3 3 4 5 5 1 3 4 2 2 0 1 2 4 4 1 1 2 3 3 5 3 6 15 21 20 18 19 16 15
17 16 15 14 13 13 14 14 14 14 14 15 15 15 15 16 16 15 16 16 15 15 15 15 14 13 14 10 7 1 3 10 3 3 14 15 17 17 13 5 15 13 10 6 4 4 4 3 4 3 4 2 1 4 3 1 0 2 5 1 4 6 7 6 6 7 3 2 5 2 3 5 7 5 0 0 5 5 4 7 9 6 10 16 18 15 16 14
18 17 17 16 15 14 13 14 14 14 14 15 15 15 15 16 16 17 17 17 16 14 15 13 14 12 11 5 6 3 2 11 4 4 14 18 16 14 10 9 6 10 10 11 9 5 5 5 7 3 2 8 3 7 2 1 1 4 5 3 4 3 5 6 7 6 5 6 5 1 5 8 4 2 1 2 1 3 9 12 11 11 12 11 12 15 13 12
16 16 15 17 17 16 14 13 13 13 14 14 15 14 15 15 16 16 17 16 16 14 14 13 14 11 8 1 1 7 10 7 1 6 12 14 14 9 8 4 1 7 6 5 6 7 7 5 4 5 5 3 2 4 1 4 5 5 7 1 3 4 4 5 3 5 6 4 2 0 4 4 4 5 4 2 5 5 9 11 11 13 13 13 13 10 10 10
16 17 17 16 17 17 16 15 12 11 14 15 14 15 14 15 15 16 16 16 15 15 14 13 11 11 6 4 2 3 8 4 3 7 10 12 12 11 7 5 3 1 5 4 4 6 6 5 7 4 3 2 3 2 2 5 4 3 5 7 8 8 4 3 4 5 2 3 3 2 1 2 3 5 2 1 6 9 10 11 11 13 13 12 10 9 8 9
16 16 17 16 16 15 17 16 13 12 13 14 15 15 15 15 14 15 15 16 15 14 14 14 11 9 5 3 3 9 4 4 2 9 12 10 10 8 6 4 2 1 4 4 5 7 3 5 3 3 1 3 4 2 3 3 1 2 3 1 3 6 4 5 4 8 1 4 6 6 5 3 2 1 4 7 7 9 13 11 15 12 11 9 7 7 5 6
16 17 17 17 16 16 17 17 17 14 13 14 14 14 15 14 14 14 14 15 16 14 13 12 12 4 5 7 9 14 3 5 10 11 13 10 8 6 8 4 1 1 3 4 4 3 1 3 3 1 3 2 1 1 2 3 0 1 0 2 4 2 2 1 5 5 4 5 4 6 4 0 1 3 4 9 9 8 10 13 14 12 10 7 5 5 3 4
16 17 17 17 17 18 18 17 17 16 14 13 14 14 15 15 14 14 15 14 13 14 14 12 8 4 4 11 16 18 17 20 14 15 16 5 7 8 9 6 5 4 4 4 2 3 1 1 0 1 2 2 1 2 0 0 1 1 1 2 3 3 4 6 1 0 4 3 8 6 2 4 7 4 10 11 11 11 10 13 10 12 9 7 6 5 3 3
17 17 17 17 15 17 18 16 13 17 15 13 13 15 16 15 16 15 15 15 16 14 13 12 4 4 6 14 6 3 8 9 12 17 15 4 3 5 2 3 4 4 3 3 2 2 2 2 2 3 0 1 1 2 2 3 2 3 2 1 1 0 3 2 1 3 4 2 6 5 4 4 3 9 11 12 15 17 13 14 13 11 9 8 7 7 5 3
18 18 17 17 16 15 16 17 15 15 16 13 12 15 16 17 18 16 16 15 14 13 12 10 3 2 4 10 6 14 22 12 11 17 3 4 1 7 3 2 2 4 5 5 2 3 4 3 2 1 2 2 0 2 4 2 4 1 2 5 2 4 4 7 2 5 6 1 0 5 2 5 3 11 11 12 12 10 15 14 14 10 10 9 8 7 5 4
18 18 18 17 17 16 15 15 15 17 16 14 13 14 18 18 17 18 18 15 15 13 6 4 3 4 5 12 5 6 2 1 7 6 6 10 7 7 1 1 0 1 3 1 3 2 3 4 3 6 2 1 2 4 1 2 1 3 4 2 2 2 3 4 1 6 1 2 2 3 4 3 1 5 14 13 14 13 12 13 12 12 12 11 10 8 5 3
18 17 18 18 17 17 16 15 14 15 16 15 14 13 14 16 19 20 19 15 7 3 4 4 2 5 4 4 4 3 4 5 3 2 1 6 7 5 3 1 0 1 2 4 5 4 2 3 1 2 1 3 4 5 3 4 4 3 1 3 3 5 1 2 5 0 1 1 1 0 2 3 4 9 8 6 12 12 14 13 14 10 11 10 9 7 6 4
17 16 17 18 17 16 16 16 14 14 15 15 10 10 12 19 20 14 7 4 1 3 5 5 1 3 11 6 8 5 2 4 2 4 5 3 8 2 2 1 0 2 2 3 1 4 2 2 2 5 2 5 5 7 10 12 9 4 2 3 0 1 1 3 1 1 1 1 7 2 2 2 4 9 13 17 15 14 13 14 13 12 11 8 6 7 5 5
19 17 16 17 17 16 16 15 15 13 12 14 8 11 16 12 3 2 3 3 5 2 1 7 7 7 2 3 7 7 3 6 6 2 3 4 3 2 1 2 3 4 2 3 2 5 2 2 1 2 9 9 11 10 8 2 7 7 5 5 4 4 2 2 4 3 1 1 4 5 6 2 6 6 10 12 15 15 14 12 11 9 5 6 6 5 3 4
19 18 16 16 16 16 16 14 13 12 13 6 4 5 4 6 3 1 2 3 6 5 1 4 14 5 13 4 2 2 6 1 2 3 1 1 7 3 1 2 1 2 5 7 3 6 5 6 9 13 6 4 3 6 6 4 6 6 3 4 3 4 1 4 3 4 1 2 2 7 4 6 11 11 11 12 12 11 10 10 6 8 10 9 7 10 6 4
19 18 17 16 16 16 16 15 12 10 10 2 2 5 3 1 2 4 1 8 13 13 15 9 16 16 12 1 3 10 9 4 0 3 2 2 3 8 3 4 3 4 4 6 8 1 7 7 11 3 5 7 7 6 5 3 4 5 4 3 1 1 3 3 0 3 2 2 1 1 4 6 12 12 11 9 11 12 13 12 11 13 10 10 12 12 7 3
18 18 17 17 16 16 16 14 12 12 1 3 2 2 5 8 6 3 2 6 6 16 16 17 9 13 13 15 8 4 3 4 13 8 4 6 3 9 3 6 5 10 3 3 4 4 9 12 4 4 5 8 7 8 7 7 4 2 3 3 2 2 3 5 3 2 1 1 3 1 5 5 7 10 9 11 14 14 14 16 17 15 11 8 8 8 8 5
17 17 17 16 16 16 16 14 9 9 1 0 1 2 5 3 1 3 2 8 13 10 12 15 13 16 20 12 5 5 6 7 9 6 1 4 4 6 6 8 9 6 5 6 12 6 6 6 7 7 8 9 3 6 8 6 4 6 3 3 3 2 2 3 1 2 1 1 1 4 4 3 3 3 7 10 15 13 14 13 3 4 5 3 8 11 10 9
16 17 16 15 16 16 15 14 8 1 2 3 3 7 3 4 5 5 5 4 7 7 12 14 18 11 16 11 6 13 10 5 6 9 3 3 7 3 5 8 8 6 12 11 7 9 3 3 7 10 8 9 6 5 8 7 7 1 5 4 3 1 1 3 1 2 2 2 2 4 2 2 2 4 4 7 3 3 6 11 11 10 10 9 10 10 6 5
15 16 16 14 14 15 15 12 3 3 2 1 2 6 7 7 7 5 3 4 4 8 5 4 6 8 6 4 5 9 7 4 8 2 1 6 4 4 4 2 5 11 8 6 4 5 3 1 6 11 8 7 7 6 8 9 5 2 3 6 6 3 4 2 2 3 6 1 2 2 1 3 4 5 12 12 5 7 7 10 9 10 9 9 10 10 3 8
15 15 14 14 14 12 12 5 2 2 2 2 2 3 4 5 5 3 4 2 7 3 2 3 7 5 6 3 7 5 6 5 8 11 3 5 3 2 2 5 3 12 7 8 6 3 4 1 7 11 8 7 7 6 5 9 7 4 6 7 6 5 4 3 2 2 1 1 1 1 5 3 3 5 6 6 11 12 10 7 6 8 8 8 10 12 11 8
14 14 14 13 13 10 3 3 1 2 1 0 4 5 4 6 5 3 1 2 4 2 5 1 3 2 5 9 11 10 2 7 7 6 8 4 4 2 4 5 3 2 4 3 2 7 6 4 6 4 10 10 7 7 6 9 8 3 3 12 6 5 5 3 3 3 2 2 6 1 2 2 2 7 4 4 11 13 11 12 8 8 9 8 9 11 7 5
13 13 13 12 11 7 3 4 3 1 1 3 5 5 6 5 3 1 1 1 2 3 2 2 4 2 1 9 10 10 3 4 3 3 9 6 1 2 3 6 7 9 6 7 14 1 10 7 7 6 5 8 10 5 7 8 7 3 3 10 8 8 5 3 1 0 1 1 9 4 0 1 3 5 1 7 8 11 11 12 13 11 11 10 10 9 9 6
12 12 12 11 11 9 4 4 4 7 1 1 3 4 4 4 2 3 2 1 2 2 3 7 4 3 2 7 8 7 1 1 1 3 6 4 6 2 5 5 5 9 5 8 7 1 1 10 8 9 7 7 4 8 11 10 5 3 6 4 5 4 3 5 5 4 1 1 8 7 2 2 5 5 1 3 9 13 10 12 14 15 14 12 12 12 13 13
11 13 12 10 7 4 1 1 6 0 4 1 2 4 2 3 3 1 3 4 0 1 1 1 1 3 5 9 4 6 3 2 0 2 4 3 6 0 4 4 5 8 5 2 5 6 1 2 11 7 8 4 7 5 10 10 5 4 10 7 4 3 3 3 3 3 2 2 12 4 4 5 4 5 9 10 10 12 10 10 11 11 10 11 14 16 13 11
9 10 11 5 1 1 2 3 3 3 3 1 5 5 2 1 4 4 1 5 5 2 1 1 2 7 7 8 5 5 4 2 2 7 5 4 5 3 1 2 2 4 3 3 5 4 0 3 3 2 8 5 6 3 3 11 7 11 4 5 6 2 4 2 1 2 2 8 4 4 8 6 6 3 4 7 3 14 15 13 15 13 12 13 14 12 12 12
8 10 11 3 3 1 2 2 3 0 3 3 4 2 2 5 1 4 5 3 0 3 2 3 2 3 3 2 4 5 6 2 1 5 10 10 9 8 9 10 8 9 9 8 7 1 3 2 2 2 8 12 6 8 2 6 6 7 6 7 9 2 2 3 2 4 10 7 1 1 4 2 8 7 6 13 8 9 13 12 17 18 17 15 14 13 11 9
6 9 12 6 5 1 3 4 3 3 5 4 3 1 3 3 4 4 5 4 2 4 3 6 1 1 4 2 2 5 4 3 3 3 6 4 8 4 2 4 4 4 8 3 5 6 4 2 2 2 1 7 10 10 5 5 8 10 10 9 9 5 5 6 5 0 4 4 2 1 1 3 3 4 3 3 2 7 2 4 13 19 18 18 16 13 11 11
8 8 4 3 3 3 2 2 1 2 3 3 2 2 2 2 2 2 4 3 4 7 7 4 11 7 8 8 5 7 3 4 5 3 8 6 8 8 6 3 8 3 6 5 6 6 4 5 10 5 2 2 9 7 9 5 8 7 2 8 7 5 5 5 4 8 6 7 1 2 2 6 4 3 5 5 4 6 9 12 11 5 4 9 10 11 13 13
8 6 3 3 2 4 5 4 3 3 3 2 1 3 3 2 1 1 2 4 3 7 7 12 5 0 3 3 0 6 4 2 3 6 8 9 10 8 9 7 2 6 4 9 3 3 12 3 5 8 4 6 9 4 7 7 6 2 4 7 6 9 6 4 5 5 3 1 1 2 4 1 2 0 2 3 6 5 5 7 10 8 7 7 10 10 12 12
4 3 1 2 1 1 4 4 2 4 2 1 1 4 5 0 1 3 2 4 3 6 12 13 1 3 1 2 0 6 7 0 3 4 2 7 3 6 2 2 5 6 6 7 2 3 4 5 1 3 5 5 9 6 4 8 7 5 6 11 7 6 6 4 1 0 2 3 6 1 4 2 3 0 3 6 8 5 4 6 8 11 9 5 2 5 11 11
4 3 2 1 1 1 4 3 5 5 2 2 1 3 2 1 0 3 3 4 3 6 7 5 3 3 2 1 1 4 4 1 1 3 3 3 3 5 6 3 5 3 5 9 1 2 9 2 2 5 8 5 4 13 5 6 6 6 6 6 3 2 4 4 2 1 1 5 5 2 3 3 2 2 5 8 8 6 7 8 10 12 9 7 7 3 3 10
4 2 4 3 1 3 2 3 6 4 2 2 4 6 4 2 1 4 2 3 2 3 4 2 1 3 1 1 2 2 3 4 2 1 3 4 2 4 6 5 4 7 6 1 5 3 5 2 5 6 10 5 1 4 6 2 5 11 7 4 7 2 7 2 3 2 2 3 3 3 3 3 6 3 4 10 10 9 9 9 11 12 11 7 10 10 5 8
3 2 3 1 2 4 3 4 4 6 2 2 1 4 3 3 2 5 4 2 3 5 3 3 4 1 2 2 1 2 2 5 1 2 5 3 1 4 9 5 4 6 9 6 1 2 2 3 1 2 7 4 4 6 10 9 4 2 8 9 3 3 1 3 5 3 5 3 0 4 3 5 5 4 10 8 12 12 12 12 13 13 12 12 10 11 7 7
4 3 1 1 4 2 6 4 3 2 1 2 2 3 1 5 3 6 5 6 3 3 2 4 6 4 3 1 1 2 2 4 5 3 1 1 2 0 6 9 5 7 8 6 2 2 2 1 1 3 2 7 7 6 11 11 9 5 6 6 2 1 1 6 1 3 4 5 5 1 3 4 6 4 10 11 12 15 17 15 13 12 9 10 9 16 15 6
1 1 1 3 4 6 6 3 2 2 2 2 2 2 2 3 5 5 6 8 4 2 2 5 5 1 2 4 4 1 1 1 1 2 1 0 2 2 5 6 7 9 3 5 7 2 2 1 5 0 5 8 6 2 5 9 9 8 8 7 6 7 5 10 8 2 3 5 3 4 7 4 5 2 3 9 7 7 3 11 10 11 10 10 9 5 9 16
3 2 1 3 1 5 3 3 1 0 2 3 2 1 2 4 3 4 5 5 3 1 2 3 3 3 2 4 3 2 1 1 1 1 0 3 3 1 4 9 10 9 9 5 7 3 5 2 3 1 7 8 3 5 8 12 9 7 10 6 7 4 5 4 6 5 3 1 2 2 1 2 3 3 3 6 8 7 5 9 13 11 11 11 9 9 6 8
2 3 1 1 2 3 1 1 2 3 3 3 5 3 2 2 2 2 4 2 2 2 2 1 3 2 2 1 1 1 0 1 2 4 2 3 3 8 4 11 11 11 10 4 3 4 4 1 3 2 4 3 5 4 1 11 11 3 6 5 6 7 8 7 4 6 5 2 1 1 0 3 2 3 2 7 9 8 8 8 12 11 10 11 12 11 11 9
3 3 3 1 0 2 1 1 1 0 3 4 2 4 3 3 3 4 1 2 0 3 2 3 4 6 5 2 2 2 1 1 1 0 0 2 2 4 8 7 9 8 10 6 7 4 3 2 5 1 2 2 2 2 3 0 4 4 6 6 8 5 3 2 5 1 5 7 8 6 4 2 2 1 6 8 11 11 12 11 11 12 10 11 12 10 8 9
3 2 2 1 1 1 2 2 0 1 3 2 2 4 3 2 2 4 5 3 1 2 2 5 7 3 4 2 1 2 3 2 0 1 0 1 2 0 2 8 9 5 5 7 8 7 4 2 4 2 5 8 9 10 8 6 10 3 2 7 5 9 7 5 5 2 6 1 4 3 2 3 2 5 9 9 12 13 12 12 10 11 14 13 10 10 10 9
1 2 1 2 0 1 3 1 3 0 0 1 2 4 2 3 1 4 6 6 5 6 7 9 9 8 8 5 1 1 2 0 2 1 2 1 1 1 3 4 8 5 6 10 10 8 3 1 4 6 5 5 6 6 4 4 3 5 3 11 7 7 10 5 6 5 9 3 5 5 6 6 7 11 13 13 13 15 15 15 15 13 12 12 12 12 11 9
1 1 2 2 1 3 4 3 4 3 2 1 0 2 2 1 3 5 3 1 2 3 4 8 5 1 3 1 1 0 1 3 3 0 2 1 2 1 4 5 3 4 9 8 9 6 3 3 5 6 6 7 4 3 2 3 8 4 6 7 6 9 8 9 8 9 5 10 6 3 6 10 10 10 11 13 13 13 11 13 14 13 13 13 12 10 9 11
2 1 0 1 2 2 2 5 4 5 7 4 2 2 2 3 3 2 2 4 6 7 4 3 5 8 9 5 2 1 4 3 2 1 3 1 1 4 2 1 3 3 4 4 8 4 6 5 4 4 4 0 1 4 4 1 3 7 9 8 7 8 9 9 7 3 9 8 8 6 11 11 13 17 18 19 18 17 15 14 14 14 13 12 12 12 11 9
1 2 2 3 2 2 3 1 1 6 6 5 3 2 3 3 7 4 3 3 3 2 6 2 1 1 3 1 2 3 2 2 2 1 0 3 2 2 1 1 1 3 4 4 7 2 5 4 5 5 4 1 2 3 2 7 2 4 3 7 8 12 11 9 4 7 9 2 4 11 14 4 1 8 9 7 9 13 13 12 13 14 15 13 13 13 13 12
4 4 3 2 3 5 4 2 2 2 4 5 3 4 2 1 4 4 2 3 2 4 4 4 2 3 3 3 2 3 3 2 0 1 1 1 4 2 0 2 1 4 2 6 6 2 4 2 7 5 4 1 5 5 4 5 7 5 3 3 2 1 2 2 5 4 6 6 4 5 9 2 1 7 10 10 11 12 14 15 15 14 14 14 14 13 13 13
2 2 3 3 5 2 2 2 3 3 3 2 3 3 2 4 6 2 5 4 6 3 1 2 2 3 2 3 3 2 3 3 4 5 5 0 1 1 1 1 1 1 3 1 2 1 3 1 1 2 5 1 3 7 3 5 6 8 4 5 5 4 6 3 4 4 5 6 7 9 4 3 5 11 12 12 13 16 16 16 15 13 14 15 15 13 13 13
2 4 5 3 3 2 2 2 4 3 5 4 4 3 2 3 1 6 6 4 3 6 5 1 0 1 4 3 2 2 5 4 6 6 3 5 4 5 3 2 1 1 1 1 1 5 4 5 3 2 6 2 2 3 3 3 6 3 1 3 2 2 1 1 2 1 2 13 11 7 10 7 12 14 16 14 16 16 16 15 14 13 13 14 15 15 13 12
Wind_Direction
314 314 318 319 321 322 322 322 324 325 323 324 321 324 324 326 325 326 328 326 330 325 325 330 329 327 330 328 326 324 333 336 315 314 306 249 221 249 257 236 121 154 198 152 307 339 335 34 86 12 78 110 239 131 220 127 132 71 154 125 237 195 183 211 185 189 212 32 301 348 325 14 331 336 26 25 30 49 67 67 50 41 44 90 98 122 127 127
309 312 314 313 315 317 319 321 321 322 321 319 321 319 323 323 324 322 326 325 329 325 325 324 328 328 326 325 328 327 339 317 302 287 247 242 220 229 236 236 227 108 104 77 159 150 154 342 182 94 118 148 288 151 128 236 130 138 120 136 226 188 236 162 202 225 346 287 291 293 316 48 293 231 303 81 314 84 83 77 78 89 84 95 107 121 127 139
305 306 309 311 310 313 315 315 316 319 318 320 320 322 320 320 320 320 321 325 322 330 324 323 324 326 330 326 323 337 344 316 296 266 275 240 234 244 248 244 212 175 169 154 184 153 173 201 169 110 98 91 223 160 162 231 157 220 125 211 235 199 238 229 222 263 189 261 307 325 310 15 286 196 297 128 180 175 137 124 111 129 139 136 133 133 139 148
300 303 304 305 308 309 310 314 313 315 319 319 319 320 318 318 320 320 321 323 322 326 324 320 324 326 322 325 331 337 2 289 270 230 277 315 322 265 241 237 211 189 141 129 150 153 124 85 113 122 110 124 263 115 146 230 147 246 145 206 231 205 209 262 234 243 264 257 276 305 302 323 312 225 137 140 110 225 240 181 156 165 157 149 144 146 151 161
292 295 298 301 303 304 306 310 311 313 315 315 316 318 319 315 320 320 322 320 320 319 327 323 327 327 327 326 334 3 320 356 258 160 9 341 331 322 296 229 206 171 160 141 105 82 163 164 110 75 101 190 36 102 240 222 199 122 218 182 198 97 195 256 239 252 244 139 109 327 318 279 306 72 92 141 155 215 205 206 219 158 151 149 153 158 163 167
292 287 288 294 297 299 301 306 309 311 311 313 316 316 316 317 318 320 318 319 320 318 320 323 321 329 325 332 330 48 159 200 285 105 346 358 357 347 345 232 181 148 136 140 152 144 135 163 115 136 147 111 184 160 266 176 154 215 295 246 226 212 234 247 270 247 167 296 160 329 257 323 342 14 254 213 187 250 176 225 198 172 161 155 146 156 170 170
293 291 288 287 287 291 296 300 305 308 310 311 314 314 318 320 320 321 319 321 316 317 316 321 320 326 333 343 312 133 229 287 331 340 7 6 6 358 15 127 149 139 146 141 154 137 183 136 135 177 117 123 261 183 236 113 46 179 245 239 261 202 223 246 259 275 277 208 260 209 343 324 303 311 292 316 297 224 142 139 154 137 129 141 153 172 170 166
292 290 286 285 288 287 289 295 301 306 307 308 311 313 316 320 320 318 320 317 317 313 312 318 316 323 341 348 350 346 319 248 259 354 11 11 4 358 36 41 110 135 148 170 161 167 142 145 173 148 115 157 217 163 226 162 95 194 252 235 262 177 231 244 247 274 275 259 250 318 297 265 255 211 114 356 304 140 126 135 139 141 139 143 158 166 166 165
294 290 291 290 286 285 286 290 297 300 304 306 307 311 312 315 317 316 313 315 315 314 307 312 319 325 346 311 284 322 251 247 60 360 16 11 349 2 31 45 44 143 162 139 169 164 139 223 166 177 218 179 210 145 221 153 292 213 229 209 267 272 255 241 314 265 251 267 164 129 254 268 183 137 64 183 102 121 118 118 126 138 149 158 169 172 164 163
301 295 289 287 287 288 292 288 291 292 299 303 305 308 311 314 317 315 311 309 311 314 306 304 311 326 328 307 287 247 265 201 32 0 360 1 349 343 39 66 46 103 122 168 130 142 180 199 170 189 125 152 162 210 176 142 228 185 208 221 233 249 271 289 232 269 269 225 147 159 192 200 248 50 277 127 135 136 119 117 131 151 158 168 167 169 167 155
308 300 290 288 288 289 281 284 284 287 292 300 305 307 309 313 314 312 313 311 307 305 312 305 312 310 304 30 264 238 264 35 353 340 336 348 343 340 328 357 358 82 113 149 171 187 175 138 171 121 321 226 142 252 135 215 186 183 188 314 271 266 255 252 306 276 324 296 186 167 195 230 312 16 215 155 140 149 136 142 150 153 169 173 168 171 156 155
319 310 304 297 291 286 285 288 285 283 288 298 304 307 308 310 305 308 312 312 307 306 301 307 306 312 249 237 233 228 301 310 318 314 316 332 316 292 275 246 231 190 116 139 213 239 153 180 109 121 182 136 238 152 248 243 12 255 120 287 281 355 273 263 207 247 147 251 127 142 85 259 251 227 175 141 150 153 140 141 153 162 170 174 173 175 166 159
320 319 313 305 297 293 288 285 286 286 287 294 301 303 304 301 303 303 305 304 301 299 300 297 314 256 281 271 243 257 293 288 304 307 301 305 280 258 247 237 218 184 162 131 194 214 151 241 203 2 241 120 186 134 197 57 252 11 69 149 352 5 339 273 251 119 148 248 134 143 256 274 259 206 147 145 153 147 143 157 154 162 174 179 184 192 172 132
325 325 317 309 301 295 292 286 284 288 287 292 296 301 299 300 300 296 296 298 297 299 296 297 336 279 226 256 285 278 261 274 286 292 278 313 272 295 274 226 196 183 167 161 195 142 147 188 195 223 103 116 220 308 30 344 21 188 252 59 225 68 262 283 181 176 172 241 160 120 167 279 279 168 152 160 160 158 158 161 163 169 175 180 192 202 184 168
327 327 322 313 305 302 293 286 284 287 288 290 297 297 300 300 299 293 293 292 289 293 293 306 261 292 267 273 286 263 253 260 267 257 297 316 358 317 299 153 159 187 184 165 149 185 172 131 111 222 265 247 187 11 329 21 354 342 109 248 330 150 276 294 268 161 184 323 203 110 174 223 219 166 161 165 166 164 155 162 167 169 178 182 195 199 191 181
324 325 324 323 317 309 296 292 293 287 284 290 295 300 301 302 295 289 285 284 285 280 296 294 235 186 331 294 264 315 59 128 259 239 241 187 187 215 206 80 214 205 136 224 174 134 158 125 159 183 207 57 99 117 29 11 322 352 170 274 161 123 241 344 237 217 177 88 350 173 199 86 301 219 169 167 165 176 162 163 167 174 180 184 194 195 193 159
323 321 323 323 321 315 308 297 289 286 289 293 300 305 306 298 289 281 281 272 260 251 225 244 176 182 238 227 323 293 262 234 255 309 91 196 196 193 110 343 235 32 60 77 136 113 90 136 219 82 231 157 163 121 152 276 286 265 11 171 210 156 209 211 299 337 180 116 200 353 137 220 190 191 131 280 186 178 172 169 176 174 182 188 189 192 189 176
318 320 321 322 322 315 309 303 299 296 300 296 309 322 312 299 302 296 273 248 133 239 235 241 297 222 257 277 285 244 277 288 303 261 238 196 189 178 179 134 65 106 94 81 17 121 184 160 122 200 133 184 146 153 178 213 191 171 116 116 69 58 154 204 149 244 63 40 161 215 114 16 174 168 168 184 199 186 181 178 172 178 184 184 191 198 192 178
315 317 318 319 317 317 310 307 298 297 298 297 331 328 302 301 337 64 89 129 135 101 103 199 178 166 202 199 245 304 283 270 280 237 283 109 154 185 211 121 119 151 150 125 235 126 163 73 64 105 194 185 196 186 171 170 133 159 161 167 154 142 199 203 246 280 123 93 140 165 176 152 165 194 184 184 183 187 187 179 167 166 113 53 17 325 197 186
313 313 315 314 316 318 315 305 298 294 302 316 359 344 353 27 350 23 72 187 232 218 211 157 200 278 314 275 191 243 300 311 344 273 263 154 99 123 128 122 60 81 134 174 156 192 135 171 192 207 187 156 143 162 151 195 141 149 115 109 168 156 277 287 285 258 349 80 193 194 155 152 179 191 193 190 185 191 187 178 161 165 167 164 156 216 230 197
310 311 312 310 312 316 314 311 302 288 300 126 51 30 334 25 27 318 298 230 223 242 256 237 197 215 229 331 359 26 9 321 34 287 259 148 114 130 202 131 134 172 194 159 147 234 135 188 219 170 158 160 163 145 137 92 74 133 130 126 163 126 212 242 250 331 320 154 312 284 117 180 186 195 197 189 172 188 189 185 188 188 184 188 188 191 204 146
307 307 309 307 311 312 313 313 307 299 10 118 87 274 272 244 231 359 336 289 245 230 237 245 225 244 257 263 277 43 36 319 312 288 282 158 221 177 210 164 166 186 154 149 78 133 189 209 145 169 166 138 138 149 161 166 166 103 143 153 108 265 254 289 280 316 293 115 252 207 161 228 219 210 207 185 182 191 190 184 187 182 185 203 198 181 158 154
305 305 307 308 308 309 313 317 307 303 199 57 170 199 247 289 292 239 245 284 277 240 225 226 231 233 246 253 235 152 199 213 249 278 258 143 157 221 152 166 178 150 167 170 181 138 192 216 185 147 134 112 86 150 157 170 167 172 111 153 195 242 134 267 304 338 356 151 178 204 148 272 299 297 227 208 190 191 194 191 135 125 139 193 203 188 170 163
302 304 305 305 305 309 316 320 313 295 193 210 222 229 245 291 283 289 297 275 300 267 194 212 208 212 230 214 199 183 178 222 168 269 199 169 161 174 161 180 144 156 194 187 176 173 181 159 170 148 138 133 139 156 149 157 204 164 168 146 175 143 233 149 219 294 292 360 94 94 56 337 287 174 240 261 294 234 185 85 89 86 96 82 38 16 8 155
298 301 304 304 301 311 324 321 282 207 131 111 229 241 243 255 262 266 279 283 251 271 189 244 170 238 240 100 126 162 216 254 214 237 221 148 184 135 223 138 135 202 183 170 130 147 240 247 142 143 155 142 133 155 179 144 173 189 231 169 178 170 191 289 337 37 21 355 320 124 4 301 277 250 201 194 186 198 171 146 142 134 120 135 142 140 168 315
294 298 302 302 299 310 332 314 230 142 101 228 219 39 19 328 309 259 189 290 293 254 130 261 150 262 130 178 146 165 108 240 201 223 186 201 198 165 131 196 176 193 165 148 174 186 190 224 153 156 154 164 158 164 194 154 169 149 247 172 171 159 155 147 277 70 25 175 272 58 171 258 321 258 237 193 185 194 155 172 147 160 156 172 167 167 165 171
291 296 302 301 299 321 322 243 32 134 40 62 53 349 349 324 315 215 220 258 291 191 160 43 129 222 168 178 156 145 117 260 177 187 196 242 182 238 161 199 105 65 138 149 74 233 161 175 149 134 154 163 160 182 201 153 128 210 224 167 149 129 142 167 94 105 213 251 296 36 126 204 295 275 228 214 197 187 171 143 151 159 176 175 160 158 137 187
289 296 297 300 302 314 237 291 293 207 187 30 356 359 321 303 316 219 125 32 289 139 149 198 216 141 124 164 172 169 198 121 116 214 180 177 125 292 176 198 176 157 166 148 198 14 160 170 159 159 166 172 193 166 147 148 139 213 193 159 169 153 163 148 120 114 246 25 282 319 267 150 251 267 273 154 199 206 182 153 168 182 179 171 153 128 134 147
292 296 299 300 297 297 270 229 247 244 115 326 359 327 309 277 127 186 207 125 246 68 154 84 248 101 35 134 187 230 330 228 121 182 159 117 208 116 197 227 151 157 184 183 167 217 323 173 176 156 159 196 143 150 151 152 138 263 153 128 126 125 127 162 164 168 309 134 254 248 179 187 277 284 216 173 200 201 186 170 177 183 177 167 148 153 171 169
292 293 301 315 338 334 326 256 244 133 320 360 284 282 251 82 137 71 50 267 26 31 220 196 207 192 147 150 207 236 274 306 35 69 131 147 203 266 290 147 134 147 168 72 154 205 174 291 167 156 185 154 152 166 157 162 173 137 131 100 74 64 82 60 77 108 68 268 247 207 197 152 278 230 191 170 207 196 189 183 184 170 163 157 165 173 174 164
292 307 310 325 248 305 333 261 31 33 276 302 267 278 164 78 197 121 142 233 17 287 28 60 179 110 137 156 176 220 268 279 360 149 132 149 159 177 168 145 54 101 87 111 199 238 327 83 117 258 129 162 125 135 187 165 149 139 143 120 102 22 21 49 353 35 171 254 262 177 182 169 204 287 251 236 244 194 185 179 170 158 165 166 175 177 167 160
316 314 306 302 241 221 245 287 183 332 291 286 313 67 106 211 61 164 203 350 149 331 35 37 106 144 175 192 21 174 185 127 241 175 162 171 165 171 202 176 160 152 188 177 202 357 253 165 248 284 163 143 153 121 193 178 154 149 123 118 142 225 95 243 58 222 213 213 269 21 117 85 240 218 221 204 221 201 192 185 173 169 178 177 178 171 161 154
295 302 296 293 295 218 242 253 214 271 326 343 326 35 182 245 198 227 282 335 98 16 336 329 25 255 171 182 245 163 248 187 175 181 151 146 150 216 273 171 197 144 177 154 103 145 291 325 309 277 55 177 151 157 158 161 192 162 168 163 152 150 176 201 232 275 331 282 259 11 196 237 248 285 359 301 323 345 285 197 182 177 180 171 169 160 153 151
281 285 290 258 250 235 226 219 194 348 312 321 236 105 251 223 255 154 247 336 323 350 317 345 316 265 183 185 212 143 183 257 146 196 166 158 157 178 228 251 159 112 89 160 139 171 107 224 244 159 216 189 167 172 171 147 157 193 71 151 175 136 163 198 192 199 215 209 280 286 133 231 138 245 333 294 358 61 82 62 31 11 237 164 146 144 141 143
305 300 286 309 280 237 220 191 210 246 259 297 208 228 219 189 80 206 68 345 359 328 314 315 285 100 175 225 331 157 152 218 186 135 170 155 189 182 180 185 206 113 137 131 228 108 202 209 255 183 210 175 180 157 134 114 146 217 146 75 117 207 136 141 200 145 208 176 285 182 193 180 160 225 267 88 95 94 105 91 85 52 323 184 143 148 145 142
6 303 24 272 264 242 154 176 189 193 175 249 192 239 238 225 191 344 25 328 2 348 316 315 319 71 359 158 264 171 233 143 187 101 133 173 146 176 174 158 177 171 142 158 191 177 78 226 301 196 176 171 178 154 182 142 170 212 125 191 203 148 101 97 68 105 113 62 253 160 340 300 299 343 121 135 92 90 93 79 88 80 15 30 341 182 141 137
344 328 346 249 258 188 177 179 179 158 150 238 130 262 258 328 71 106 346 9 308 297 305 6 358 22 36 216 242 171 206 106 187 116 168 132 174 186 175 210 145 136 167 125 261 189 154 225 271 130 202 241 195 165 185 184 141 108 188 220 105 100 114 121 188 350 67 172 246 69 242 302 72 280 149 130 118 128 120 127 112 102 80 55 64 329 121 127
328 309 288 264 233 151 199 181 151 128 157 214 198 238 335 352 318 76 183 347 309 281 301 278 316 28 32 30 4 174 189 165 232 106 154 179 230 172 162 177 188 161 188 152 134 235 123 113 224 185 180 192 95 138 175 211 161 172 182 202 141 205 227 293 91 178 161 209 267 316 217 259 183 222 147 154 146 162 142 135 122 124 120 111 94 71 28 115
307 292 311 258 94 145 189 152 140 130 159 197 238 269 302 279 278 45 69 81 225 290 303 337 351 347 32 14 265 311 175 170 180 160 120 224 126 198 175 149 185 181 184 164 110 186 119 150 293 277 169 182 132 145 195 191 330 65 119 172 185 121 170 102 200 173 117 230 48 291 71 250 206 198 182 180 172 160 150 148 149 149 140 130 117 111 115 150
321 322 312 15 308 176 155 135 101 137 259 199 196 247 347 312 322 5 354 74 354 342 332 319 0 324 347 251 318 67 352 125 146 237 105 239 102 301 181 169 160 177 193 185 190 162 135 120 157 270 255 130 191 194 201 174 152 139 152 178 185 190 233 113 46 137 173 170 185 177 285 269 260 221 171 188 177 177 166 156 150 145 139 128 146 147 140 85
295 267 334 336 356 136 132 140 122 172 210 265 296 271 303 284 338 354 31 43 351 246 271 318 326 317 340 339 326 341 360 53 116 136 178 177 143 162 236 183 140 167 128 188 219 193 73 172 189 95 142 197 206 217 145 163 162 164 151 188 167 106 123 160 233 28 93 107 206 152 242 269 267 295 230 172 174 157 144 136 128 127 124 122 111 59 109 116
307 325 343 15 346 151 131 88 204 219 276 245 240 313 284 346 351 1 4 25 313 303 345 321 275 253 235 243 248 323 36 34 116 118 282 155 227 158 217 168 155 152 152 187 188 236 149 161 106 176 208 194 185 177 179 165 164 160 156 209 164 154 127 157 177 221 63 55 96 153 110 283 260 279 284 154 142 146 116 136 129 128 126 119 107 109 93 108
323 307 329 291 260 196 228 60 173 185 230 282 326 302 275 286 236 315 5 351 312 77 320 285 261 311 250 198 291 279 305 298 165 181 206 180 227 210 212 174 156 157 151 173 126 219 136 125 125 287 310 303 278 310 151 163 152 139 202 148 134 189 187 175 160 181 151 152 55 353 225 250 305 348 73 118 124 116 106 114 120 117 114 111 115 121 124 111
294 287 301 295 200 197 295 162 222 286 285 304 290 274 313 269 294 308 272 290 277 352 319 318 291 217 266 208 250 272 299 66 266 86 317 234 223 212 155 170 170 164 158 211 172 206 137 277 122 44 45 30 39 36 37 342 157 164 189 198 187 153 79 157 108 80 152 214 164 128 235 274 322 70 98 107 116 119 119 120 121 115 115 120 123 120 115 111
287 232 236 292 88 182 238 338 25 156 258 302 308 312 320 278 225 248 247 240 180 223 277 249 232 281 285 262 216 306 282 195 313 283 125 226 237 59 184 143 182 164 181 177 171 156 155 198 146 146 150 154 173 181 193 177 199 214 185 178 166 157 144 114 166 158 199 257 134 156 226 257 134 131 119 123 117 115 121 122 119 123 131 131 128 124 122 125
349 348 115 71 145 160 301 264 297 265 205 295 334 275 242 276 268 266 234 262 210 232 229 267 286 277 271 268 24 336 328 330 158 285 18 301 303 350 121 116 173 178 205 176 153 137 163 148 154 164 148 179 204 211 255 117 71 174 204 169 191 177 169 142 121 136 197 191 181 224 165 156 173 158 147 145 135 137 138 137 137 139 135 131 130 133 133 135
281 347 346 119 54 247 267 307 307 320 307 234 261 2 326 283 304 318 147 270 223 227 259 228 239 293 286 154 188 303 287 327 315 55 250 272 261 241 293 169 144 218 199 165 160 101 97 153 209 166 198 214 181 213 208 220 173 191 140 188 169 152 155 136 159 210 157 113 231 277 181 146 188 169 155 147 140 136 136 137 139 139 141 140 139 130 130 137
3 83 64 28 300 213 223 276 227 257 266 298 288 357 298 324 320 303 258 231 264 251 250 326 203 228 256 250 129 46 331 334 334 322 322 245 323 330 73 32 110 305 209 169 171 129 141 173 248 138 227 241 249 245 248 210 192 167 168 154 164 174 154 160 198 186 146 158 199 212 168 179 185 183 175 167 159 153 146 143 139 136 133 137 136 134 134 130
294 277 252 309 292 348 222 250 164 226 262 276 291 261 286 275 281 239 216 320 263 271 182 274 81 293 253 270 105 164 209 48 334 312 173 323 33 345 16 358 192 4 153 141 175 157 120 203 186 178 169 179 9 318 282 155 99 63 86 173 170 163 186 168 165 181 167 164 213 165 169 148 277 167 147 135 125 128 129 127 134 141 145 142 138 138 137 138
25 346 330 342 245 273 265 256 285 285 241 243 258 219 234 229 267 304 227 188 271 266 185 240 286 297 348 52 77 130 215 170 188 306 289 35 335 55 200 200 268 332 65 164 166 248 142 257 164 157 156 7 355 9 33 143 135 98 43 53 38 199 99 117 123 114 85 55 80 112 132 134 336 114 117 116 117 120 126 141 147 146 142 145 143 142 140 137
291 211 213 283 291 240 216 212 223 215 273 246 233 277 231 247 265 298 290 213 221 250 304 282 272 336 4 46 51 298 262 234 239 225 250 254 253 347 76 298 155 13 5 89 151 179 143 223 36 111 136 305 359 30 24 70 83 104 69 41 31 129 154 195 145 206 134 140 118 105 109 176 177 130 123 128 133 137 144 148 148 152 151 145 143 139 138 134
269 220 219 238 276 327 294 260 237 181 231 212 194 233 247 289 283 349 327 277 224 234 211 161 245 82 327 26 301 247 283 261 241 242 231 234 245 274 228 215 225 122 80 121 340 143 144 125 145 120 119 208 300 63 32 62 88 79 355 326 303 283 287 305 343 134 195 142 121 133 220 172 155 146 138 148 148 147 148 154 149 147 148 146 141 138 132 131